ftp/pub/mcmurdo/pegasus/solar/2015/02/NZPG.CRREL.SOLAR.2015.02.22.1530.dat

Download

"TOA5","C150","CR1000","43625","CR1000.Std.22","CPU:247411_r6_eppley2.CR1","44759","eppley_data"
"TIMESTAMP","RECORD","PIR_net","Case_Temp_K","PSP_in_Avg","PSP_in_Min","PSP_in_Max","PIR_in_Avg","PIR_in_Min","PIR_in_Max","wd_2minavg","ws_2minavg","AirTC","RH","BP_mbar"
"TS","RN","","","","","","","","","","","Deg C","Percent","Millibar"
"","","Smp","Smp","Avg","Min","Max","Avg","Min","Max","Smp","Smp","Smp","Smp","Smp"
"2015-02-22 15:30:00",59622,"NAN","NAN","NAN","NAN","NAN","NAN","NAN","NAN",174.3,8.01,-11.85,88.9,978
"TOA5","C150","CR1000","43625","CR1000.Std.22","CPU:247411_r6_eppley2.CR1","44759","eppley_data"
"TIMESTAMP","RECORD","PIR_net","Case_Temp_K","PSP_in_Avg","PSP_in_Min","PSP_in_Max","PIR_in_Avg","PIR_in_Min","PIR_in_Max","wd_2minavg","ws_2minavg","AirTC","RH","BP_mbar"
"TS","RN","","","","","","","","","","","Deg C","Percent","Millibar"
"","","Smp","Smp","Avg","Min","Max","Avg","Min","Max","Smp","Smp","Smp","Smp","Smp"
"2015-02-22 15:30:00",59622,"NAN","NAN","NAN","NAN","NAN","NAN","NAN","NAN",174.3,8.01,-11.85,88.9,978
"2015-02-22 15:40:00",59623,"NAN","NAN","NAN","NAN","NAN","NAN","NAN","NAN",176.1,7.875,-11.78,88.8,978
"2015-02-22 15:50:00",59624,"NAN","NAN","NAN","NAN","NAN","NAN","NAN","NAN",171.8,8.39,-12.05,87.9,978
"2015-02-22 16:00:00",59625,"NAN","NAN","NAN","NAN","NAN","NAN","NAN","NAN",173,8.01,-12.19,88.3,979
"2015-02-22 16:10:00",59626,"NAN","NAN","NAN","NAN","NAN","NAN","NAN","NAN",168.7,7.749,-12.12,88.2,979
"2015-02-22 16:20:00",59627,"NAN","NAN","NAN","NAN","NAN","NAN","NAN","NAN",172.8,7.599,-11.98,88.5,979
"2015-02-22 16:30:00",59628,"NAN","NAN","NAN","NAN","NAN","NAN","NAN","NAN",168.8,6.945,-11.98,87.8,979
"2015-02-22 16:40:00",59629,"NAN","NAN","NAN","NAN","NAN","NAN","NAN","NAN",162.2,6.219,-11.95,87.2,979
"2015-02-22 16:50:00",59630,"NAN","NAN","NAN","NAN","NAN","NAN","NAN","NAN",169.9,6.292,-12.12,87,979
"2015-02-22 17:00:00",59631,"NAN","NAN","NAN","NAN","NAN","NAN","NAN","NAN",174.6,5.942,-11.61,86.7,979
"2015-02-22 17:10:00",59632,"NAN","NAN","NAN","NAN","NAN","NAN","NAN","NAN",169.5,8.17,-11.67,85,979
"2015-02-22 17:20:00",59633,"NAN","NAN","NAN","NAN","NAN","NAN","NAN","NAN",181.6,8.27,-11.71,85.6,979
"2015-02-22 17:30:00",59634,"NAN","NAN","NAN","NAN","NAN","NAN","NAN","NAN",182.5,6.34,-11.64,81.8,980
"2015-02-22 17:40:00",59635,"NAN","NAN","NAN","NAN","NAN","NAN","NAN","NAN",175.9,7.962,-12.05,84,980
"2015-02-22 17:50:00",59636,"NAN","NAN","NAN","NAN","NAN","NAN","NAN","NAN",171.6,6.242,-11.95,83.3,980
"2015-02-22 18:00:00",59637,"NAN","NAN","NAN","NAN","NAN","NAN","NAN","NAN",175.5,6.142,-11.64,82.1,980
"2015-02-22 18:10:00",59638,"NAN","NAN","NAN","NAN","NAN","NAN","NAN","NAN",177.9,5.781,-11.64,79.92,980
"2015-02-22 18:20:00",59639,"NAN","NAN","NAN","NAN","NAN","NAN","NAN","NAN",199.5,9.13,-11.13,76.27,980
"2015-02-22 18:30:00",59640,"NAN","NAN","NAN","NAN","NAN","NAN","NAN","NAN",194.7,7.201,-11.44,79.58,980
"2015-02-22 18:40:00",59641,"NAN","NAN","NAN","NAN","NAN","NAN","NAN","NAN",198,11.7,-11.92,83.3,980
"2015-02-22 18:50:00",59642,"NAN","NAN","NAN","NAN","NAN","NAN","NAN","NAN",196.2,8.45,-11.85,83,980
"2015-02-22 19:00:00",59643,"NAN","NAN","NAN","NAN","NAN","NAN","NAN","NAN",188.3,10.27,-11.81,84.1,980
"2015-02-22 19:10:00",59644,"NAN","NAN","NAN","NAN","NAN","NAN","NAN","NAN",196.8,9.26,-11.71,85.6,980
"2015-02-22 19:20:00",59645,"NAN","NAN","NAN","NAN","NAN","NAN","NAN","NAN",202.3,9.23,-11.68,84.7,980
"2015-02-22 19:30:00",59646,"NAN","NAN","NAN","NAN","NAN","NAN","NAN","NAN",204.5,9.55,-11.47,81.2,981
"2015-02-22 19:40:00",59647,"NAN","NAN","NAN","NAN","NAN","NAN","NAN","NAN",205.6,10.75,-11.57,82.1,981
"2015-02-22 19:50:00",59648,"NAN","NAN","NAN","NAN","NAN","NAN","NAN","NAN",197.1,8.92,-11.54,82.7,981
"2015-02-22 20:00:00",59649,"NAN","NAN","NAN","NAN","NAN","NAN","NAN","NAN",189.5,9.15,-11.44,84.5,981
"2015-02-22 20:10:00",59650,"NAN","NAN","NAN","NAN","NAN","NAN","NAN","NAN",201.5,11.11,-11.68,83.3,981
"2015-02-22 20:20:00",59651,"NAN","NAN","NAN","NAN","NAN","NAN","NAN","NAN",194.2,11.28,-11.71,82.2,981
"2015-02-22 20:30:00",59652,"NAN","NAN","NAN","NAN","NAN","NAN","NAN","NAN",190,7.706,-10.96,75.62,981
"2015-02-22 20:40:00",59653,"NAN","NAN","NAN","NAN","NAN","NAN","NAN","NAN",181.5,6.584,-11.06,75.75,981
"2015-02-22 20:50:00",59654,"NAN","NAN","NAN","NAN","NAN","NAN","NAN","NAN",185.9,4.901,-11.27,76.63,981
"2015-02-22 21:00:00",59655,"NAN","NAN","NAN","NAN","NAN","NAN","NAN","NAN",171.1,5.114,-11.1,76.56,981
"2015-02-22 21:10:00",59656,"NAN","NAN","NAN","NAN","NAN","NAN","NAN","NAN",202.7,5.535,-10.28,70.86,981
"2015-02-22 21:20:00",59657,"NAN","NAN","NAN","NAN","NAN","NAN","NAN","NAN",194.4,8.11,-10.73,72.76,981
"2015-02-22 21:30:00",59658,"NAN","NAN","NAN","NAN","NAN","NAN","NAN","NAN",180.3,7.942,-10.53,69.52,982
"2015-02-22 21:40:00",59659,"NAN","NAN","NAN","NAN","NAN","NAN","NAN","NAN",174.6,6.558,-11.08,73.47,982
"2015-02-22 21:50:00",59660,"NAN","NAN","NAN","NAN","NAN","NAN","NAN","NAN",170.6,7.252,-11.72,79.61,982
"2015-02-22 22:00:00",59661,"NAN","NAN","NAN","NAN","NAN","NAN","NAN","NAN",182.4,5.94,-11.32,77.01,982
"2015-02-22 22:10:00",59662,"NAN","NAN","NAN","NAN","NAN","NAN","NAN","NAN",177.1,7.164,-11.35,77.9,982
"2015-02-22 22:20:00",59663,"NAN","NAN","NAN","NAN","NAN","NAN","NAN","NAN",191.4,6.499,-11.35,79.5,982
"2015-02-22 22:30:00",59664,"NAN","NAN","NAN","NAN","NAN","NAN","NAN","NAN",185,5.344,-10.87,76.47,982
"2015-02-22 22:40:00",59665,"NAN","NAN","NAN","NAN","NAN","NAN","NAN","NAN",179.4,5.94,-11.01,76.64,982
"2015-02-22 22:50:00",59666,"NAN","NAN","NAN","NAN","NAN","NAN","NAN","NAN",191.6,3.145,-10.53,73.36,982
"2015-02-22 23:00:00",59667,"NAN","NAN","NAN","NAN","NAN","NAN","NAN","NAN",176.6,6,-10.67,76.54,982
"2015-02-22 23:10:00",59668,"NAN","NAN","NAN","NAN","NAN","NAN","NAN","NAN",187.8,6.298,-10.63,74.18,982
"2015-02-22 23:20:00",59669,"NAN","NAN","NAN","NAN","NAN","NAN","NAN","NAN",186.5,6.795,-10.98,78.68,982
"2015-02-22 23:30:00",59670,"NAN","NAN","NAN","NAN","NAN","NAN","NAN","NAN",177.3,5.927,-10.74,79.33,982
"2015-02-22 23:40:00",59671,"NAN","NAN","NAN","NAN","NAN","NAN","NAN","NAN",168.2,6.239,-11.18,78.89,982
"2015-02-22 23:50:00",59672,"NAN","NAN","NAN","NAN","NAN","NAN","NAN","NAN",177.6,8.37,-11.04,81.6,982
"2015-02-23 00:00:00",59673,"NAN","NAN","NAN","NAN","NAN","NAN","NAN","NAN",162.4,6.773,-11.15,80.4,982
"2015-02-23 00:10:00",59674,"NAN","NAN","NAN","NAN","NAN","NAN","NAN","NAN",156.7,6.947,-10.87,79.3,982
"2015-02-23 00:20:00",59675,"NAN","NAN","NAN","NAN","NAN","NAN","NAN","NAN",154.8,4.353,-10.67,76.06,982
"2015-02-23 00:30:00",59676,"NAN","NAN","NAN","NAN","NAN","NAN","NAN","NAN",194.6,3.252,-9.95,73.5,982
"2015-02-23 00:40:00",59677,"NAN","NAN","NAN","NAN","NAN","NAN","NAN","NAN",205.4,2.262,-9.54,66.99,982
"2015-02-23 00:50:00",59678,"NAN","NAN","NAN","NAN","NAN","NAN","NAN","NAN",202.3,4.225,-9.24,65.86,982
"2015-02-23 01:00:00",59679,"NAN","NAN","NAN","NAN","NAN","NAN","NAN","NAN",166.8,2.005,-9.03,67.77,982
"2015-02-23 01:10:00",59680,"NAN","NAN","NAN","NAN","NAN","NAN","NAN","NAN",158.9,1.877,-9.13,67.46,982
"2015-02-23 01:20:00",59681,"NAN","NAN","NAN","NAN","NAN","NAN","NAN","NAN",229.8,7.689,-9.54,74.18,982
"2015-02-23 01:30:00",59682,"NAN","NAN","NAN","NAN","NAN","NAN","NAN","NAN",222.4,6.822,-9.48,73.67,982
"2015-02-23 01:40:00",59683,"NAN","NAN","NAN","NAN","NAN","NAN","NAN","NAN",210.5,5.097,-9.13,69.24,982
"2015-02-23 01:50:00",59684,"NAN","NAN","NAN","NAN","NAN","NAN","NAN","NAN",229.3,6.423,-8.72,65.96,982
"2015-02-23 02:00:00",59685,"NAN","NAN","NAN","NAN","NAN","NAN","NAN","NAN",223.8,4.325,-8.35,63.3,982
"2015-02-23 02:10:00",59686,"NAN","NAN","NAN","NAN","NAN","NAN","NAN","NAN",225.6,4.654,-8.21,64.26,982
"2015-02-23 02:20:00",59687,"NAN","NAN","NAN","NAN","NAN","NAN","NAN","NAN",220.9,6.522,-8.38,68.08,982
"2015-02-23 02:30:00",59688,"NAN","NAN","NAN","NAN","NAN","NAN","NAN","NAN",203.4,4.172,-7.6,62.72,983
"2015-02-23 02:40:00",59689,"NAN","NAN","NAN","NAN","NAN","NAN","NAN","NAN",232.1,4.494,-8.01,70.22,983
"2015-02-23 02:50:00",59690,"NAN","NAN","NAN","NAN","NAN","NAN","NAN","NAN",223,5.853,-8.25,73.15,983
"2015-02-23 03:00:00",59691,"NAN","NAN","NAN","NAN","NAN","NAN","NAN","NAN",230.2,6.51,-8.53,75.64,983
"2015-02-23 03:10:00",59692,"NAN","NAN","NAN","NAN","NAN","NAN","NAN","NAN",223.5,6.132,-8.63,74.31,983
"2015-02-23 03:20:00",59693,"NAN","NAN","NAN","NAN","NAN","NAN","NAN","NAN",225,4.431,-8.53,71.24,983
"2015-02-23 03:30:00",59694,"NAN","NAN","NAN","NAN","NAN","NAN","NAN","NAN",215.1,4.724,-8.42,72.67,983
"2015-02-23 03:40:00",59695,"NAN","NAN","NAN","NAN","NAN","NAN","NAN","NAN",214.7,6.168,-8.42,73.32,983
"2015-02-23 03:50:00",59696,"NAN","NAN","NAN","NAN","NAN","NAN","NAN","NAN",213.9,5.655,-8.25,72.12,983
"2015-02-23 04:00:00",59697,"NAN","NAN","NAN","NAN","NAN","NAN","NAN","NAN",209.9,4.332,-7.808,68.88,983
"2015-02-23 04:10:00",59698,"NAN","NAN","NAN","NAN","NAN","NAN","NAN","NAN",213.7,4.498,-7.877,68.82,983
"2015-02-23 04:20:00",59699,"NAN","NAN","NAN","NAN","NAN","NAN","NAN","NAN",216.8,4.876,-7.707,68.99,983
"2015-02-23 04:30:00",59700,"NAN","NAN","NAN","NAN","NAN","NAN","NAN","NAN",103.7,2.893,-8.39,75.84,983
"2015-02-23 04:40:00",59701,"NAN","NAN","NAN","NAN","NAN","NAN","NAN","NAN",106.5,2.883,-8.42,76.76,983
"2015-02-23 04:50:00",59702,"NAN","NAN","NAN","NAN","NAN","NAN","NAN","NAN",129.9,1.672,-7.468,73.28,983
"2015-02-23 05:00:00",59703,"NAN","NAN","NAN","NAN","NAN","NAN","NAN","NAN",151.4,1.356,-7.127,72.16,983
"2015-02-23 05:10:00",59704,"NAN","NAN","NAN","NAN","NAN","NAN","NAN","NAN",158.3,2.652,-6.922,71.75,983
"2015-02-23 05:20:00",59705,"NAN","NAN","NAN","NAN","NAN","NAN","NAN","NAN",142.5,2.865,-7.403,73.89,983
"2015-02-23 05:30:00",59706,"NAN","NAN","NAN","NAN","NAN","NAN","NAN","NAN",161.1,3.958,-7.473,74.19,983
"2015-02-23 05:40:00",59707,"NAN","NAN","NAN","NAN","NAN","NAN","NAN","NAN",144.7,4.582,-8.09,78.31,983
"2015-02-23 05:50:00",59708,"NAN","NAN","NAN","NAN","NAN","NAN","NAN","NAN",162.4,4.195,-7.854,76.39,983
"2015-02-23 06:00:00",59709,"NAN","NAN","NAN","NAN","NAN","NAN","NAN","NAN",156.5,4.719,-7.956,76.73,983
"2015-02-23 06:10:00",59710,"NAN","NAN","NAN","NAN","NAN","NAN","NAN","NAN",157.3,5.78,-8.16,75.85,983
"2015-02-23 06:20:00",59711,"NAN","NAN","NAN","NAN","NAN","NAN","NAN","NAN",149.9,6.137,-8.23,75.3,983
"2015-02-23 06:30:00",59712,"NAN","NAN","NAN","NAN","NAN","NAN","NAN","NAN",143.5,5.156,-8.5,75.37,983
"2015-02-23 06:40:00",59713,"NAN","NAN","NAN","NAN","NAN","NAN","NAN","NAN",134.2,4.136,-8.53,74.96,983
"2015-02-23 06:50:00",59714,"NAN","NAN","NAN","NAN","NAN","NAN","NAN","NAN",111,3.561,-8.84,75.58,983
"2015-02-23 07:00:00",59715,"NAN","NAN","NAN","NAN","NAN","NAN","NAN","NAN",101.1,3.005,-9.35,77.33,984
"2015-02-23 07:10:00",59716,"NAN","NAN","NAN","NAN","NAN","NAN","NAN","NAN",81.5,2.276,-9.66,77.39,984
"2015-02-23 07:20:00",59717,"NAN","NAN","NAN","NAN","NAN","NAN","NAN","NAN",68.42,1.956,-9.66,76.82,984
"2015-02-23 07:30:00",59718,"NAN","NAN","NAN","NAN","NAN","NAN","NAN","NAN",68.15,2.494,-9.45,75.22,984
"2015-02-23 07:40:00",59719,"NAN","NAN","NAN","NAN","NAN","NAN","NAN","NAN",84.2,3.352,-9.31,75.05,984
"2015-02-23 07:50:00",59720,"NAN","NAN","NAN","NAN","NAN","NAN","NAN","NAN",79.55,3.539,-9.48,75.02,984
"2015-02-23 08:00:00",59721,"NAN","NAN","NAN","NAN","NAN","NAN","NAN","NAN",80.9,2.916,-10.03,78.29,984
"2015-02-23 08:10:00",59722,"NAN","NAN","NAN","NAN","NAN","NAN","NAN","NAN",77.6,2.887,-10.47,79.97,984
"2015-02-23 08:20:00",59723,"NAN","NAN","NAN","NAN","NAN","NAN","NAN","NAN",76.39,2.795,-10.64,80.1,984
"2015-02-23 08:30:00",59724,"NAN","NAN","NAN","NAN","NAN","NAN","NAN","NAN",77.82,2.767,-10.37,79.52,984
"2015-02-23 08:40:00",59725,"NAN","NAN","NAN","NAN","NAN","NAN","NAN","NAN",72.8,3.305,-10.06,78.06,984
"2015-02-23 08:50:00",59726,"NAN","NAN","NAN","NAN","NAN","NAN","NAN","NAN",79.97,2.635,-10.4,78.2,984
"2015-02-23 09:00:00",59727,"NAN","NAN","NAN","NAN","NAN","NAN","NAN","NAN",31.14,2.118,-10.33,78.07,984
"2015-02-23 09:10:00",59728,"NAN","NAN","NAN","NAN","NAN","NAN","NAN","NAN",68.18,2.549,-10.63,76.84,984
"2015-02-23 09:20:00",59729,"NAN","NAN","NAN","NAN","NAN","NAN","NAN","NAN",57.21,2.343,-10.74,77.18,984
"2015-02-23 09:30:00",59730,"NAN","NAN","NAN","NAN","NAN","NAN","NAN","NAN",63.1,2.09,-11.15,77.08,984
"2015-02-23 09:40:00",59731,"NAN","NAN","NAN","NAN","NAN","NAN","NAN","NAN",71.78,1.568,-11.62,78.49,984
"2015-02-23 09:50:00",59732,"NAN","NAN","NAN","NAN","NAN","NAN","NAN","NAN",65.82,1.393,-11.99,78.46,984
"2015-02-23 10:00:00",59733,"NAN","NAN","NAN","NAN","NAN","NAN","NAN","NAN",83.8,1.661,-12.06,79.83,984
"2015-02-23 10:10:00",59734,"NAN","NAN","NAN","NAN","NAN","NAN","NAN","NAN",86,2.056,-12.13,80,984
"2015-02-23 10:20:00",59735,"NAN","NAN","NAN","NAN","NAN","NAN","NAN","NAN",71.28,1.853,-12.33,79.6,984
"2015-02-23 10:30:00",59736,"NAN","NAN","NAN","NAN","NAN","NAN","NAN","NAN",87.6,2.055,-12.46,80.7,983
"2015-02-23 10:40:00",59737,"NAN","NAN","NAN","NAN","NAN","NAN","NAN","NAN",92.8,1.332,-12.74,81.5,983
"2015-02-23 10:50:00",59738,"NAN","NAN","NAN","NAN","NAN","NAN","NAN","NAN",96,1.197,-12.74,81.5,983
"2015-02-23 11:00:00",59739,"NAN","NAN","NAN","NAN","NAN","NAN","NAN","NAN",108.9,1.06,-11.37,78.8,984
"2015-02-23 11:10:00",59740,"NAN","NAN","NAN","NAN","NAN","NAN","NAN","NAN",183.3,2.442,-12.66,80.6,984
"2015-02-23 11:20:00",59741,"NAN","NAN","NAN","NAN","NAN","NAN","NAN","NAN",153.4,3.118,-14.81,80.7,984
"2015-02-23 11:30:00",59742,"NAN","NAN","NAN","NAN","NAN","NAN","NAN","NAN",131.4,3.495,-15.32,85.4,984
"2015-02-23 11:40:00",59743,"NAN","NAN","NAN","NAN","NAN","NAN","NAN","NAN",116.1,3.539,-15.46,85.5,984
"2015-02-23 11:50:00",59744,"NAN","NAN","NAN","NAN","NAN","NAN","NAN","NAN",108.6,4.066,-15.69,86.9,984
"2015-02-23 12:00:00",59745,"NAN","NAN","NAN","NAN","NAN","NAN","NAN","NAN",98.4,5.116,-15.93,87.2,983
"2015-02-23 12:10:00",59746,"NAN","NAN","NAN","NAN","NAN","NAN","NAN","NAN",87.3,5.116,-16.48,86.9,983
"2015-02-23 12:20:00",59747,"NAN","NAN","NAN","NAN","NAN","NAN","NAN","NAN",98.6,4.905,-16.41,87.5,983
"2015-02-23 12:30:00",59748,"NAN","NAN","NAN","NAN","NAN","NAN","NAN","NAN",92.2,4.974,-16.54,87,984
"2015-02-23 12:40:00",59749,"NAN","NAN","NAN","NAN","NAN","NAN","NAN","NAN",95.2,5.136,-16.51,86.2,984
"2015-02-23 12:50:00",59750,"NAN","NAN","NAN","NAN","NAN","NAN","NAN","NAN",90.9,4.791,-16.81,86.6,984
"2015-02-23 13:00:00",59751,"NAN","NAN","NAN","NAN","NAN","NAN","NAN","NAN",93.3,4.573,-16.81,86.5,984
"2015-02-23 13:10:00",59752,"NAN","NAN","NAN","NAN","NAN","NAN","NAN","NAN",102.6,4.314,-17.08,86.1,984
"2015-02-23 13:20:00",59753,"NAN","NAN","NAN","NAN","NAN","NAN","NAN","NAN",102.6,4.222,-17.42,86.2,984
"2015-02-23 13:30:00",59754,"NAN","NAN","NAN","NAN","NAN","NAN","NAN","NAN",99.5,4.818,-17.25,86.9,983
"2015-02-23 13:40:00",59755,"NAN","NAN","NAN","NAN","NAN","NAN","NAN","NAN",93.8,5.25,-17.08,87.2,983
"2015-02-23 13:50:00",59756,"NAN","NAN","NAN","NAN","NAN","NAN","NAN","NAN",95,5.594,-17.19,86.8,983
"2015-02-23 14:00:00",59757,"NAN","NAN","NAN","NAN","NAN","NAN","NAN","NAN",93.3,5.49,-17.42,86.8,983
"2015-02-23 14:10:00",59758,"NAN","NAN","NAN","NAN","NAN","NAN","NAN","NAN",91.5,4.851,-17.76,86.4,983
"2015-02-23 14:20:00",59759,"NAN","NAN","NAN","NAN","NAN","NAN","NAN","NAN",98.7,4.3,-17.52,86.8,983
"2015-02-23 14:30:00",59760,"NAN","NAN","NAN","NAN","NAN","NAN","NAN","NAN",104.2,3.958,-17.52,86.5,983
"2015-02-23 14:40:00",59761,"NAN","NAN","NAN","NAN","NAN","NAN","NAN","NAN",102.4,4.95,-17.35,87.2,983
"2015-02-23 14:50:00",59762,"NAN","NAN","NAN","NAN","NAN","NAN","NAN","NAN",106.6,4.399,-17.35,86.8,983
"2015-02-23 15:00:00",59763,"NAN","NAN","NAN","NAN","NAN","NAN","NAN","NAN",103.8,4.085,-17.32,86.4,983
"2015-02-23 15:10:00",59764,"NAN","NAN","NAN","NAN","NAN","NAN","NAN","NAN",105.2,3.958,-17.42,86.5,983
"2015-02-23 15:20:00",59765,"NAN","NAN","NAN","NAN","NAN","NAN","NAN","NAN",110.8,3.556,-17.86,86,983
"2015-02-23 15:30:00",59766,"NAN","NAN","NAN","NAN","NAN","NAN","NAN","NAN",117.5,4.105,-18.17,85.4,983
"2015-02-23 15:40:00",59767,"NAN","NAN","NAN","NAN","NAN","NAN","NAN","NAN",115.7,4.392,-18.55,85.7,983
"2015-02-23 15:50:00",59768,"NAN","NAN","NAN","NAN","NAN","NAN","NAN","NAN",114.9,4.077,-18.75,85.4,983
"2015-02-23 16:00:00",59769,"NAN","NAN","NAN","NAN","NAN","NAN","NAN","NAN",119.5,4.483,-18.61,86.3,983
"2015-02-23 16:10:00",59770,"NAN","NAN","NAN","NAN","NAN","NAN","NAN","NAN",121.5,3.706,-18.24,86.5,983
"2015-02-23 16:20:00",59771,"NAN","NAN","NAN","NAN","NAN","NAN","NAN","NAN",132.9,3.954,-18.17,86,983
"2015-02-23 16:30:00",59772,"NAN","NAN","NAN","NAN","NAN","NAN","NAN","NAN",120.4,4.463,-18.51,85.2,983
"2015-02-23 16:40:00",59773,"NAN","NAN","NAN","NAN","NAN","NAN","NAN","NAN",118.9,4.418,-18.82,85.2,983
"2015-02-23 16:50:00",59774,"NAN","NAN","NAN","NAN","NAN","NAN","NAN","NAN",117.9,4.932,-18.78,85.2,983
"2015-02-23 17:00:00",59775,"NAN","NAN","NAN","NAN","NAN","NAN","NAN","NAN",117.7,4.815,-18.72,85.4,983
"2015-02-23 17:10:00",59776,"NAN","NAN","NAN","NAN","NAN","NAN","NAN","NAN",118.5,4.772,-18.72,85.3,983
"2015-02-23 17:20:00",59777,"NAN","NAN","NAN","NAN","NAN","NAN","NAN","NAN",119.5,5.468,-18.31,85.6,983
"2015-02-23 17:30:00",59778,"NAN","NAN","NAN","NAN","NAN","NAN","NAN","NAN",116.5,5.23,-18.27,85.1,983
"2015-02-23 17:40:00",59779,"NAN","NAN","NAN","NAN","NAN","NAN","NAN","NAN",119.8,5.154,-18.27,85,983
"2015-02-23 17:50:00",59780,"NAN","NAN","NAN","NAN","NAN","NAN","NAN","NAN",122.7,5.764,-18.79,84.4,983
"2015-02-23 18:00:00",59781,"NAN","NAN","NAN","NAN","NAN","NAN","NAN","NAN",118.2,5.463,-18.96,84.6,982
"2015-02-23 18:10:00",59782,"NAN","NAN","NAN","NAN","NAN","NAN","NAN","NAN",123.1,5.518,-19.16,84.6,982
"2015-02-23 18:20:00",59783,"NAN","NAN","NAN","NAN","NAN","NAN","NAN","NAN",116.5,4.944,-19.1,84.6,982
"2015-02-23 18:30:00",59784,"NAN","NAN","NAN","NAN","NAN","NAN","NAN","NAN",119.3,5.203,-18.96,85,982
"2015-02-23 18:40:00",59785,"NAN","NAN","NAN","NAN","NAN","NAN","NAN","NAN",119.1,5.148,-18.75,85,982
"2015-02-23 18:50:00",59786,"NAN","NAN","NAN","NAN","NAN","NAN","NAN","NAN",124.7,5.831,-18.31,85.4,982
"2015-02-23 19:00:00",59787,"NAN","NAN","NAN","NAN","NAN","NAN","NAN","NAN",130.3,5.896,-17.83,85.5,982
"2015-02-23 19:10:00",59788,"NAN","NAN","NAN","NAN","NAN","NAN","NAN","NAN",133.3,5.723,-17.73,85.7,982
"2015-02-23 19:20:00",59789,"NAN","NAN","NAN","NAN","NAN","NAN","NAN","NAN",135,4.915,-17.7,85.4,982
"2015-02-23 19:30:00",59790,"NAN","NAN","NAN","NAN","NAN","NAN","NAN","NAN",137,4.783,-17.73,85.8,983
"2015-02-23 19:40:00",59791,"NAN","NAN","NAN","NAN","NAN","NAN","NAN","NAN",135.6,4.403,-17.42,85.4,983
"2015-02-23 19:50:00",59792,"NAN","NAN","NAN","NAN","NAN","NAN","NAN","NAN",147,4.227,-17.19,85.9,983
"2015-02-23 20:00:00",59793,"NAN","NAN","NAN","NAN","NAN","NAN","NAN","NAN",134.2,3.875,-16.78,86.6,983
"2015-02-23 20:10:00",59794,"NAN","NAN","NAN","NAN","NAN","NAN","NAN","NAN",137.6,4.104,-16.64,86.4,983
"2015-02-23 20:20:00",59795,"NAN","NAN","NAN","NAN","NAN","NAN","NAN","NAN",142.8,3.805,-16.2,87.1,983
"2015-02-23 20:30:00",59796,"NAN","NAN","NAN","NAN","NAN","NAN","NAN","NAN",144.3,3.09,-16.09,87.3,983
"2015-02-23 20:40:00",59797,"NAN","NAN","NAN","NAN","NAN","NAN","NAN","NAN",158.2,2.425,-15.48,87.4,983
"2015-02-23 20:50:00",59798,"NAN","NAN","NAN","NAN","NAN","NAN","NAN","NAN",157,2.081,-15.41,87.7,983
"2015-02-23 21:00:00",59799,"NAN","NAN","NAN","NAN","NAN","NAN","NAN","NAN",152.7,1.99,-14.73,88.7,983
"2015-02-23 21:10:00",59800,"NAN","NAN","NAN","NAN","NAN","NAN","NAN","NAN",160.6,2.214,-15.35,86.4,983
"2015-02-23 21:20:00",59801,"NAN","NAN","NAN","NAN","NAN","NAN","NAN","NAN",154.7,3.276,-16.13,86,983
"2015-02-23 21:30:00",59802,"NAN","NAN","NAN","NAN","NAN","NAN","NAN","NAN",166.4,3.44,-16,86.1,983
"2015-02-23 21:40:00",59803,"NAN","NAN","NAN","NAN","NAN","NAN","NAN","NAN",175.9,3.89,-16.34,85.7,983
"2015-02-23 21:50:00",59804,"NAN","NAN","NAN","NAN","NAN","NAN","NAN","NAN",164.7,4.775,-16.89,85.4,983
"2015-02-23 22:00:00",59805,"NAN","NAN","NAN","NAN","NAN","NAN","NAN","NAN",174,4.801,-16.75,86,983
"2015-02-23 22:10:00",59806,"NAN","NAN","NAN","NAN","NAN","NAN","NAN","NAN",171.6,5.757,-16.85,86.2,983
"2015-02-23 22:20:00",59807,"NAN","NAN","NAN","NAN","NAN","NAN","NAN","NAN",169.3,6.074,-16.54,86.1,983
"2015-02-23 22:30:00",59808,"NAN","NAN","NAN","NAN","NAN","NAN","NAN","NAN",169.1,5.767,-16.41,86.2,983
"2015-02-23 22:40:00",59809,"NAN","NAN","NAN","NAN","NAN","NAN","NAN","NAN",174.9,5.558,-16.07,87.2,983
"2015-02-23 22:50:00",59810,"NAN","NAN","NAN","NAN","NAN","NAN","NAN","NAN",179.3,5.361,-16.14,85.8,983
"2015-02-23 23:00:00",59811,"NAN","NAN","NAN","NAN","NAN","NAN","NAN","NAN",166.8,5.378,-16.17,86.2,983
"2015-02-23 23:10:00",59812,"NAN","NAN","NAN","NAN","NAN","NAN","NAN","NAN",173.4,5.533,-15.93,86.4,983
"2015-02-23 23:20:00",59813,"NAN","NAN","NAN","NAN","NAN","NAN","NAN","NAN",175.7,5.067,-15.55,87.4,983
"2015-02-23 23:30:00",59814,"NAN","NAN","NAN","NAN","NAN","NAN","NAN","NAN",165.8,5.46,-15.28,87.6,983
"2015-02-23 23:40:00",59815,"NAN","NAN","NAN","NAN","NAN","NAN","NAN","NAN",160.9,3.887,-14.97,87.6,983
"2015-02-23 23:50:00",59816,"NAN","NAN","NAN","NAN","NAN","NAN","NAN","NAN",153.8,2.483,-14.63,88.9,983
"2015-02-24 00:00:00",59817,"NAN","NAN","NAN","NAN","NAN","NAN","NAN","NAN",166.4,2.34,-14.39,87.6,983
"2015-02-24 00:10:00",59818,"NAN","NAN","NAN","NAN","NAN","NAN","NAN","NAN",163.3,2.385,-14.36,88,983
"2015-02-24 00:20:00",59819,"NAN","NAN","NAN","NAN","NAN","NAN","NAN","NAN",168.6,2.733,-14.06,88.6,983
"2015-02-24 00:30:00",59820,"NAN","NAN","NAN","NAN","NAN","NAN","NAN","NAN",159.7,3.575,-13.51,89.1,983
"2015-02-24 00:40:00",59821,"NAN","NAN","NAN","NAN","NAN","NAN","NAN","NAN",142.5,3.074,-13.21,89.9,983
"2015-02-24 00:50:00",59822,"NAN","NAN","NAN","NAN","NAN","NAN","NAN","NAN",79.2,3.339,-14.64,85.9,983
"2015-02-24 01:00:00",59823,"NAN","NAN","NAN","NAN","NAN","NAN","NAN","NAN",71.45,3.178,-14.64,88.4,983
"2015-02-24 01:10:00",59824,"NAN","NAN","NAN","NAN","NAN","NAN","NAN","NAN",180.8,5.218,-13.21,90.5,983
"2015-02-24 01:20:00",59825,"NAN","NAN","NAN","NAN","NAN","NAN","NAN","NAN",179.5,4.669,-13.11,88.7,983
"2015-02-24 01:30:00",59826,"NAN","NAN","NAN","NAN","NAN","NAN","NAN","NAN",180.4,6.16,-13.07,88.9,982
"2015-02-24 01:40:00",59827,"NAN","NAN","NAN","NAN","NAN","NAN","NAN","NAN",170.5,5.376,-12.87,88.7,982
"2015-02-24 01:50:00",59828,"NAN","NAN","NAN","NAN","NAN","NAN","NAN","NAN",157.2,4.453,-12.97,88.6,982
"2015-02-24 02:00:00",59829,"NAN","NAN","NAN","NAN","NAN","NAN","NAN","NAN",92.7,4.023,-13.83,88.8,982
"2015-02-24 02:10:00",59830,"NAN","NAN","NAN","NAN","NAN","NAN","NAN","NAN",107.2,2.473,-13.35,90.2,982
"2015-02-24 02:20:00",59831,"NAN","NAN","NAN","NAN","NAN","NAN","NAN","NAN",154.4,3.4,-13.28,87.4,982
"2015-02-24 02:30:00",59832,"NAN","NAN","NAN","NAN","NAN","NAN","NAN","NAN",169.8,6.615,-13.52,87.7,982
"2015-02-24 02:40:00",59833,"NAN","NAN","NAN","NAN","NAN","NAN","NAN","NAN",175.7,6.795,-13.79,87.2,982
"2015-02-24 02:50:00",59834,"NAN","NAN","NAN","NAN","NAN","NAN","NAN","NAN",185.5,7.996,-14.03,88.1,982
"2015-02-24 03:00:00",59835,"NAN","NAN","NAN","NAN","NAN","NAN","NAN","NAN",187.1,9.09,-14.1,87.9,982
"2015-02-24 03:10:00",59836,"NAN","NAN","NAN","NAN","NAN","NAN","NAN","NAN",186.3,9.68,-13.96,88.5,982
"2015-02-24 03:20:00",59837,"NAN","NAN","NAN","NAN","NAN","NAN","NAN","NAN",184.1,8.66,-13.93,88.5,982
"2015-02-24 03:30:00",59838,"NAN","NAN","NAN","NAN","NAN","NAN","NAN","NAN",181.9,7.317,-13.75,88.4,982
"2015-02-24 03:40:00",59839,"NAN","NAN","NAN","NAN","NAN","NAN","NAN","NAN",187,7.348,-13.75,88.7,982
"2015-02-24 03:50:00",59840,"NAN","NAN","NAN","NAN","NAN","NAN","NAN","NAN",180.1,4.92,-13.28,89.7,982
"2015-02-24 04:00:00",59841,"NAN","NAN","NAN","NAN","NAN","NAN","NAN","NAN",169.6,3.295,-12.94,89.5,982
"2015-02-24 04:10:00",59842,"NAN","NAN","NAN","NAN","NAN","NAN","NAN","NAN",204.9,3.971,-13.11,88.8,982
"2015-02-24 04:20:00",59843,"NAN","NAN","NAN","NAN","NAN","NAN","NAN","NAN",190.4,3.206,-13.11,86.8,982
"2015-02-24 04:30:00",59844,"NAN","NAN","NAN","NAN","NAN","NAN","NAN","NAN",203.9,4.017,-13.38,87.2,981
"2015-02-24 04:40:00",59845,"NAN","NAN","NAN","NAN","NAN","NAN","NAN","NAN",197.2,6.966,-13.41,87.5,981
"2015-02-24 04:50:00",59846,"NAN","NAN","NAN","NAN","NAN","NAN","NAN","NAN",200.6,8.77,-13.52,87.1,981
"2015-02-24 05:00:00",59847,"NAN","NAN","NAN","NAN","NAN","NAN","NAN","NAN",195.9,7.913,-13.35,87.6,980
"2015-02-24 05:10:00",59848,"NAN","NAN","NAN","NAN","NAN","NAN","NAN","NAN",186.5,7.664,-13.14,87.1,980
"2015-02-24 05:20:00",59849,"NAN","NAN","NAN","NAN","NAN","NAN","NAN","NAN",170.2,6.854,-12.83,89.6,980
"2015-02-24 05:30:00",59850,"NAN","NAN","NAN","NAN","NAN","NAN","NAN","NAN",161,1.568,-12.42,88.9,981
"2015-02-24 05:40:00",59851,"NAN","NAN","NAN","NAN","NAN","NAN","NAN","NAN",226.6,3.577,-12.83,86.8,981
"2015-02-24 05:50:00",59852,"NAN","NAN","NAN","NAN","NAN","NAN","NAN","NAN",202.8,6.796,-13.45,85.7,981
"2015-02-24 06:00:00",59853,"NAN","NAN","NAN","NAN","NAN","NAN","NAN","NAN",206.5,6.025,-13.38,84.6,981
"2015-02-24 06:10:00",59854,"NAN","NAN","NAN","NAN","NAN","NAN","NAN","NAN",206.6,6.078,-13.55,83.9,981
"2015-02-24 06:20:00",59855,"NAN","NAN","NAN","NAN","NAN","NAN","NAN","NAN",202.5,6.847,-13.48,83.8,981
"2015-02-24 06:30:00",59856,"NAN","NAN","NAN","NAN","NAN","NAN","NAN","NAN",196.2,7.513,-13.41,82.8,981
"2015-02-24 06:40:00",59857,"NAN","NAN","NAN","NAN","NAN","NAN","NAN","NAN",191.8,6.558,-13.34,83.2,981
"2015-02-24 06:50:00",59858,"NAN","NAN","NAN","NAN","NAN","NAN","NAN","NAN",189,6.773,-13.11,83.1,981
"2015-02-24 07:00:00",59859,"NAN","NAN","NAN","NAN","NAN","NAN","NAN","NAN",188.4,6.213,-13.28,81.2,981
"2015-02-24 07:10:00",59860,"NAN","NAN","NAN","NAN","NAN","NAN","NAN","NAN",188.5,5.717,-13.11,82.8,981
"2015-02-24 07:20:00",59861,"NAN","NAN","NAN","NAN","NAN","NAN","NAN","NAN",184.8,4.92,-12.73,80.5,981
"2015-02-24 07:30:00",59862,"NAN","NAN","NAN","NAN","NAN","NAN","NAN","NAN",180,4.831,-12.76,79.42,980
"2015-02-24 07:40:00",59863,"NAN","NAN","NAN","NAN","NAN","NAN","NAN","NAN",182,5.136,-12.83,78.5,980
"2015-02-24 07:50:00",59864,"NAN","NAN","NAN","NAN","NAN","NAN","NAN","NAN",186,4.59,-12.73,79.35,980
"2015-02-24 08:00:00",59865,"NAN","NAN","NAN","NAN","NAN","NAN","NAN","NAN",192.6,2.268,-12.53,76.76,981
"2015-02-24 08:10:00",59866,"NAN","NAN","NAN","NAN","NAN","NAN","NAN","NAN",200.6,2.562,-12.46,74.37,981
"2015-02-24 08:20:00",59867,"NAN","NAN","NAN","NAN","NAN","NAN","NAN","NAN",189,3.332,-12.46,72.25,981
"2015-02-24 08:30:00",59868,"NAN","NAN","NAN","NAN","NAN","NAN","NAN","NAN",331.4,1.502,-12.94,76.04,980
"2015-02-24 08:40:00",59869,"NAN","NAN","NAN","NAN","NAN","NAN","NAN","NAN",26.95,4.336,-13.62,77.65,980
"2015-02-24 08:50:00",59870,"NAN","NAN","NAN","NAN","NAN","NAN","NAN","NAN",41.32,4.091,-13.65,78.6,980
"2015-02-24 09:00:00",59871,"NAN","NAN","NAN","NAN","NAN","NAN","NAN","NAN",44.36,4.341,-13.58,79.01,980
"2015-02-24 09:10:00",59872,"NAN","NAN","NAN","NAN","NAN","NAN","NAN","NAN",41.84,4.438,-13.45,79.08,980
"2015-02-24 09:20:00",59873,"NAN","NAN","NAN","NAN","NAN","NAN","NAN","NAN",53.01,4.902,-13.86,80.8,980
"2015-02-24 09:30:00",59874,"NAN","NAN","NAN","NAN","NAN","NAN","NAN","NAN",71.97,4.784,-13.82,80.3,980
"2015-02-24 09:40:00",59875,"NAN","NAN","NAN","NAN","NAN","NAN","NAN","NAN",70,5.194,-14.27,80.2,980
"2015-02-24 09:50:00",59876,"NAN","NAN","NAN","NAN","NAN","NAN","NAN","NAN",78.09,4.663,-14.33,80.8,980
"2015-02-24 10:00:00",59877,"NAN","NAN","NAN","NAN","NAN","NAN","NAN","NAN",87.7,4.969,-14.44,80.3,980
"2015-02-24 10:10:00",59878,"NAN","NAN","NAN","NAN","NAN","NAN","NAN","NAN",74.01,5.079,-14.33,79.69,980
"2015-02-24 10:20:00",59879,"NAN","NAN","NAN","NAN","NAN","NAN","NAN","NAN",75.91,5.861,-14.3,76.62,980
"2015-02-24 10:30:00",59880,"NAN","NAN","NAN","NAN","NAN","NAN","NAN","NAN",75.59,6.174,-14.37,79.56,980
"2015-02-24 10:40:00",59881,"NAN","NAN","NAN","NAN","NAN","NAN","NAN","NAN",68.14,5.696,-14.37,80.5,980
"2015-02-24 10:50:00",59882,"NAN","NAN","NAN","NAN","NAN","NAN","NAN","NAN",77.78,5.927,-14.5,80.1,980
"2015-02-24 11:00:00",59883,"NAN","NAN","NAN","NAN","NAN","NAN","NAN","NAN",79.77,5.155,-14.43,80.9,980
"2015-02-24 11:10:00",59884,"NAN","NAN","NAN","NAN","NAN","NAN","NAN","NAN",78.09,4.954,-14.43,80.9,980
"2015-02-24 11:20:00",59885,"NAN","NAN","NAN","NAN","NAN","NAN","NAN","NAN",76.49,5.662,-14.56,80.8,980
"2015-02-24 11:30:00",59886,"NAN","NAN","NAN","NAN","NAN","NAN","NAN","NAN",77.33,5.614,-14.5,80.7,979
"2015-02-24 11:40:00",59887,"NAN","NAN","NAN","NAN","NAN","NAN","NAN","NAN",84.5,4.866,-14.5,80.9,979
"2015-02-24 11:50:00",59888,"NAN","NAN","NAN","NAN","NAN","NAN","NAN","NAN",77.66,3.508,-13.75,78.9,979
"2015-02-24 12:00:00",59889,"NAN","NAN","NAN","NAN","NAN","NAN","NAN","NAN",103.9,1.147,-13.68,78.29,979
"2015-02-24 12:10:00",59890,"NAN","NAN","NAN","NAN","NAN","NAN","NAN","NAN",154,0.592,-13.57,76.95,979
"2015-02-24 12:20:00",59891,"NAN","NAN","NAN","NAN","NAN","NAN","NAN","NAN",56.39,3.454,-13.85,78.42,979
"2015-02-24 12:30:00",59892,"NAN","NAN","NAN","NAN","NAN","NAN","NAN","NAN",39.32,2.166,-14.02,80.1,979
"2015-02-24 12:40:00",59893,"NAN","NAN","NAN","NAN","NAN","NAN","NAN","NAN",57.63,2.029,-13.88,82.1,979
"2015-02-24 12:50:00",59894,"NAN","NAN","NAN","NAN","NAN","NAN","NAN","NAN",45.97,1.102,-13.75,83.1,979
"2015-02-24 13:00:00",59895,"NAN","NAN","NAN","NAN","NAN","NAN","NAN","NAN",292.8,0.832,-13.68,83.2,979
"2015-02-24 13:10:00",59896,"NAN","NAN","NAN","NAN","NAN","NAN","NAN","NAN",245.8,3.335,-13.37,81.6,979
"2015-02-24 13:20:00",59897,"NAN","NAN","NAN","NAN","NAN","NAN","NAN","NAN",205.9,5.967,-13.99,71.37,979
"2015-02-24 13:30:00",59898,"NAN","NAN","NAN","NAN","NAN","NAN","NAN","NAN",203.2,7.023,-14.09,78.64,979
"2015-02-24 13:40:00",59899,"NAN","NAN","NAN","NAN","NAN","NAN","NAN","NAN",195.7,7.635,-14.27,84.9,979
"2015-02-24 13:50:00",59900,"NAN","NAN","NAN","NAN","NAN","NAN","NAN","NAN",189.8,7.937,-14.37,83.6,979
"2015-02-24 14:00:00",59901,"NAN","NAN","NAN","NAN","NAN","NAN","NAN","NAN",192.3,7.052,-14.57,82.5,979
"2015-02-24 14:10:00",59902,"NAN","NAN","NAN","NAN","NAN","NAN","NAN","NAN",196.2,7.405,-14.4,83.4,979
"2015-02-24 14:20:00",59903,"NAN","NAN","NAN","NAN","NAN","NAN","NAN","NAN",181.4,5.871,-13.78,82.3,979
"2015-02-24 14:30:00",59904,"NAN","NAN","NAN","NAN","NAN","NAN","NAN","NAN",194.4,6.71,-14.46,84,978
"2015-02-24 14:40:00",59905,"NAN","NAN","NAN","NAN","NAN","NAN","NAN","NAN",192.5,6.067,-14.19,85,978
"2015-02-24 14:50:00",59906,"NAN","NAN","NAN","NAN","NAN","NAN","NAN","NAN",194.1,6.35,-14.26,85.5,978
"2015-02-24 15:00:00",59907,"NAN","NAN","NAN","NAN","NAN","NAN","NAN","NAN",185.6,6.899,-14.26,85.5,978
"2015-02-24 15:10:00",59908,"NAN","NAN","NAN","NAN","NAN","NAN","NAN","NAN",182.3,5.627,-13.98,85,978
"2015-02-24 15:20:00",59909,"NAN","NAN","NAN","NAN","NAN","NAN","NAN","NAN",171.9,6.017,-13.71,82.5,978
"2015-02-24 15:30:00",59910,"NAN","NAN","NAN","NAN","NAN","NAN","NAN","NAN",186.1,3.459,-13.51,80.3,978
"2015-02-24 15:40:00",59911,"NAN","NAN","NAN","NAN","NAN","NAN","NAN","NAN",168.3,3.247,-13.64,82.3,978
"2015-02-24 15:50:00",59912,"NAN","NAN","NAN","NAN","NAN","NAN","NAN","NAN",153.4,2.292,-13.51,81.7,978
"2015-02-24 16:00:00",59913,"NAN","NAN","NAN","NAN","NAN","NAN","NAN","NAN",176.4,4.694,-13.65,81.9,978
"2015-02-24 16:10:00",59914,"NAN","NAN","NAN","NAN","NAN","NAN","NAN","NAN",190,4.72,-13.99,81.9,978
"2015-02-24 16:20:00",59915,"NAN","NAN","NAN","NAN","NAN","NAN","NAN","NAN",193.6,5.417,-13.78,79.36,978
"2015-02-24 16:30:00",59916,"NAN","NAN","NAN","NAN","NAN","NAN","NAN","NAN",185.1,3.975,-13.55,78.61,978
"2015-02-24 16:40:00",59917,"NAN","NAN","NAN","NAN","NAN","NAN","NAN","NAN",175.1,2.871,-13.62,78.4,978
"2015-02-24 16:50:00",59918,"NAN","NAN","NAN","NAN","NAN","NAN","NAN","NAN",188.6,1.946,-13.48,75.91,978
"2015-02-24 17:00:00",59919,"NAN","NAN","NAN","NAN","NAN","NAN","NAN","NAN",173.1,1.069,-13.65,78.7,978
"2015-02-24 17:10:00",59920,"NAN","NAN","NAN","NAN","NAN","NAN","NAN","NAN",156,2.751,-13.34,78.23,978
"2015-02-24 17:20:00",59921,"NAN","NAN","NAN","NAN","NAN","NAN","NAN","NAN",170.9,4.639,-13.34,75.26,978
"2015-02-24 17:30:00",59922,"NAN","NAN","NAN","NAN","NAN","NAN","NAN","NAN",180.3,3,-13.24,77.27,978
"2015-02-24 17:40:00",59923,"NAN","NAN","NAN","NAN","NAN","NAN","NAN","NAN",150.2,2.35,-13.31,77.37,978
"2015-02-24 17:50:00",59924,"NAN","NAN","NAN","NAN","NAN","NAN","NAN","NAN",157.6,2.431,-13.34,75.8,978
"2015-02-24 18:00:00",59925,"NAN","NAN","NAN","NAN","NAN","NAN","NAN","NAN",121.5,1.027,-13.38,78.81,978
"2015-02-24 18:10:00",59926,"NAN","NAN","NAN","NAN","NAN","NAN","NAN","NAN",143.9,1.679,-13.21,71.95,978
"2015-02-24 18:20:00",59927,"NAN","NAN","NAN","NAN","NAN","NAN","NAN","NAN",188.1,4.974,-13.34,69.8,978
"2015-02-24 18:30:00",59928,"NAN","NAN","NAN","NAN","NAN","NAN","NAN","NAN",180.8,3.807,-13.34,70.41,978
"2015-02-24 18:40:00",59929,"NAN","NAN","NAN","NAN","NAN","NAN","NAN","NAN",111.6,3.973,-14.3,70.24,978
"2015-02-24 18:50:00",59930,"NAN","NAN","NAN","NAN","NAN","NAN","NAN","NAN",110.7,5.715,-14.95,74.91,978
"2015-02-24 19:00:00",59931,"NAN","NAN","NAN","NAN","NAN","NAN","NAN","NAN",102.4,5.414,-15.39,75.67,978
"2015-02-24 19:10:00",59932,"NAN","NAN","NAN","NAN","NAN","NAN","NAN","NAN",113.2,4.918,-15.49,76.52,978
"2015-02-24 19:20:00",59933,"NAN","NAN","NAN","NAN","NAN","NAN","NAN","NAN",123,3.638,-15.46,74.1,978
"2015-02-24 19:30:00",59934,"NAN","NAN","NAN","NAN","NAN","NAN","NAN","NAN",101.4,4.568,-15.42,76.47,978
"2015-02-24 19:40:00",59935,"NAN","NAN","NAN","NAN","NAN","NAN","NAN","NAN",94.5,5.036,-15.56,74.53,978
"2015-02-24 19:50:00",59936,"NAN","NAN","NAN","NAN","NAN","NAN","NAN","NAN",89.3,4.447,-15.49,76.68,978
"2015-02-24 20:00:00",59937,"NAN","NAN","NAN","NAN","NAN","NAN","NAN","NAN",100.2,4.177,-15.45,74.12,978
"2015-02-24 20:10:00",59938,"NAN","NAN","NAN","NAN","NAN","NAN","NAN","NAN",91.3,5.02,-15.38,72.28,978
"2015-02-24 20:20:00",59939,"NAN","NAN","NAN","NAN","NAN","NAN","NAN","NAN",94.8,4.958,-15.21,72.86,978
"2015-02-24 20:30:00",59940,"NAN","NAN","NAN","NAN","NAN","NAN","NAN","NAN",92.8,5.205,-15.32,72.24,978
"2015-02-24 20:40:00",59941,"NAN","NAN","NAN","NAN","NAN","NAN","NAN","NAN",101.4,5.219,-15.28,71.97,978
"2015-02-24 20:50:00",59942,"NAN","NAN","NAN","NAN","NAN","NAN","NAN","NAN",91.9,5.158,-15.28,73.78,978
"2015-02-24 21:00:00",59943,"NAN","NAN","NAN","NAN","NAN","NAN","NAN","NAN",94.7,5.477,-15.28,72.99,978
"2015-02-24 21:10:00",59944,"NAN","NAN","NAN","NAN","NAN","NAN","NAN","NAN",99.1,5.294,-15.18,73.16,978
"2015-02-24 21:20:00",59945,"NAN","NAN","NAN","NAN","NAN","NAN","NAN","NAN",101.4,6.237,-15.15,72.89,978
"2015-02-24 21:30:00",59946,"NAN","NAN","NAN","NAN","NAN","NAN","NAN","NAN",100,5.789,-15.21,72.62,978
"2015-02-24 21:40:00",59947,"NAN","NAN","NAN","NAN","NAN","NAN","NAN","NAN",94.9,5.499,-14.87,72.17,978
"2015-02-24 21:50:00",59948,"NAN","NAN","NAN","NAN","NAN","NAN","NAN","NAN",89.5,5.617,-14.91,71.46,978
"2015-02-24 22:00:00",59949,"NAN","NAN","NAN","NAN","NAN","NAN","NAN","NAN",99.2,4.833,-14.84,68.62,978
"2015-02-24 22:10:00",59950,"NAN","NAN","NAN","NAN","NAN","NAN","NAN","NAN",88.7,4.84,-14.67,69.61,978
"2015-02-24 22:20:00",59951,"NAN","NAN","NAN","NAN","NAN","NAN","NAN","NAN",89.1,5.135,-14.6,70.13,978
"2015-02-24 22:30:00",59952,"NAN","NAN","NAN","NAN","NAN","NAN","NAN","NAN",88.8,6.009,-14.57,68.59,978
"2015-02-24 22:40:00",59953,"NAN","NAN","NAN","NAN","NAN","NAN","NAN","NAN",88.8,5.445,-14.33,69.53,978
"2015-02-24 22:50:00",59954,"NAN","NAN","NAN","NAN","NAN","NAN","NAN","NAN",88.9,5.169,-14.33,66.42,978
"2015-02-24 23:00:00",59955,"NAN","NAN","NAN","NAN","NAN","NAN","NAN","NAN",93.8,4.418,-14.44,67.34,978
"2015-02-24 23:10:00",59956,"NAN","NAN","NAN","NAN","NAN","NAN","NAN","NAN",95,6.092,-14.47,66.96,978
"2015-02-24 23:20:00",59957,"NAN","NAN","NAN","NAN","NAN","NAN","NAN","NAN",95.5,5.965,-14.61,68.4,978
"2015-02-24 23:30:00",59958,"NAN","NAN","NAN","NAN","NAN","NAN","NAN","NAN",95,5.878,-14.54,70,978
"2015-02-24 23:40:00",59959,"NAN","NAN","NAN","NAN","NAN","NAN","NAN","NAN",95.8,5.14,-14.57,68.26,978
"2015-02-24 23:50:00",59960,"NAN","NAN","NAN","NAN","NAN","NAN","NAN","NAN",97.1,5.655,-14.68,69.35,978
"2015-02-25 00:00:00",59961,"NAN","NAN","NAN","NAN","NAN","NAN","NAN","NAN",95.1,6.221,-14.61,70.75,978
"2015-02-25 00:10:00",59962,"NAN","NAN","NAN","NAN","NAN","NAN","NAN","NAN",97.6,5.068,-14.5,70.79,978
"2015-02-25 00:20:00",59963,"NAN","NAN","NAN","NAN","NAN","NAN","NAN","NAN",101,5.555,-14.71,69.59,978
"2015-02-25 00:30:00",59964,"NAN","NAN","NAN","NAN","NAN","NAN","NAN","NAN",97.1,5.732,-14.61,67.68,978
"2015-02-25 00:40:00",59965,"NAN","NAN","NAN","NAN","NAN","NAN","NAN","NAN",92.2,5.58,-14.54,66.28,978
"2015-02-25 00:50:00",59966,"NAN","NAN","NAN","NAN","NAN","NAN","NAN","NAN",88.9,5.584,-14.57,67.95,978
"2015-02-25 01:00:00",59967,"NAN","NAN","NAN","NAN","NAN","NAN","NAN","NAN",88.4,5.525,-14.3,67.34,978
"2015-02-25 01:10:00",59968,"NAN","NAN","NAN","NAN","NAN","NAN","NAN","NAN",92.2,5.125,-14.23,67.92,978
"2015-02-25 01:20:00",59969,"NAN","NAN","NAN","NAN","NAN","NAN","NAN","NAN",93.8,5.019,-14.13,67.85,978
"2015-02-25 01:30:00",59970,"NAN","NAN","NAN","NAN","NAN","NAN","NAN","NAN",95.2,5.548,-14.16,67.44,978
"2015-02-25 01:40:00",59971,"NAN","NAN","NAN","NAN","NAN","NAN","NAN","NAN",91.5,5.334,-14.2,62.8,978
"2015-02-25 01:50:00",59972,"NAN","NAN","NAN","NAN","NAN","NAN","NAN","NAN",95.1,6.089,-14.2,60.99,978
"2015-02-25 02:00:00",59973,"NAN","NAN","NAN","NAN","NAN","NAN","NAN","NAN",90.6,4.955,-14.13,66.52,978
"2015-02-25 02:10:00",59974,"NAN","NAN","NAN","NAN","NAN","NAN","NAN","NAN",88.9,4.405,-14.1,64.61,978
"2015-02-25 02:20:00",59975,"NAN","NAN","NAN","NAN","NAN","NAN","NAN","NAN",93.3,5.055,-14.2,64.81,978
"2015-02-25 02:30:00",59976,"NAN","NAN","NAN","NAN","NAN","NAN","NAN","NAN",91.4,5.24,-14.1,63.17,978
"2015-02-25 02:40:00",59977,"NAN","NAN","NAN","NAN","NAN","NAN","NAN","NAN",93,5.275,-13.99,61.09,978
"2015-02-25 02:50:00",59978,"NAN","NAN","NAN","NAN","NAN","NAN","NAN","NAN",91.5,5.597,-14.03,61.84,978
"2015-02-25 03:00:00",59979,"NAN","NAN","NAN","NAN","NAN","NAN","NAN","NAN",89.8,5.189,-13.96,64.47,978
"2015-02-25 03:10:00",59980,"NAN","NAN","NAN","NAN","NAN","NAN","NAN","NAN",93,5.446,-13.96,61.16,978
"2015-02-25 03:20:00",59981,"NAN","NAN","NAN","NAN","NAN","NAN","NAN","NAN",93.1,4.194,-13.86,62.9,978
"2015-02-25 03:30:00",59982,"NAN","NAN","NAN","NAN","NAN","NAN","NAN","NAN",86.9,5.25,-13.79,64.47,978
"2015-02-25 03:40:00",59983,"NAN","NAN","NAN","NAN","NAN","NAN","NAN","NAN",83.3,4.596,-13.89,61.13,978
"2015-02-25 03:50:00",59984,"NAN","NAN","NAN","NAN","NAN","NAN","NAN","NAN",84.5,5.677,-13.86,62.59,978
"2015-02-25 04:00:00",59985,"NAN","NAN","NAN","NAN","NAN","NAN","NAN","NAN",86.9,4.919,-13.82,59.25,978
"2015-02-25 04:10:00",59986,"NAN","NAN","NAN","NAN","NAN","NAN","NAN","NAN",87.9,4.627,-13.86,58.02,978
"2015-02-25 04:20:00",59987,"NAN","NAN","NAN","NAN","NAN","NAN","NAN","NAN",89.3,4.57,-13.82,58.6,978
"2015-02-25 04:30:00",59988,"NAN","NAN","NAN","NAN","NAN","NAN","NAN","NAN",84.7,4.292,-13.72,60.34,978
"2015-02-25 04:40:00",59989,"NAN","NAN","NAN","NAN","NAN","NAN","NAN","NAN",90.5,3.967,-13.69,59.04,978
"2015-02-25 04:50:00",59990,"NAN","NAN","NAN","NAN","NAN","NAN","NAN","NAN",91.7,3.624,-13.72,62.46,978
"2015-02-25 05:00:00",59991,"NAN","NAN","NAN","NAN","NAN","NAN","NAN","NAN",89.3,4.683,-13.72,60.2,978
"2015-02-25 05:10:00",59992,"NAN","NAN","NAN","NAN","NAN","NAN","NAN","NAN",85.5,4.274,-13.65,61.26,978
"2015-02-25 05:20:00",59993,"NAN","NAN","NAN","NAN","NAN","NAN","NAN","NAN",84,4.531,-13.69,60.44,978
"2015-02-25 05:30:00",59994,"NAN","NAN","NAN","NAN","NAN","NAN","NAN","NAN",81.4,4.693,-13.75,62.39,978
"2015-02-25 05:40:00",59995,"NAN","NAN","NAN","NAN","NAN","NAN","NAN","NAN",82.1,4.9,-13.72,59.56,978
"2015-02-25 05:50:00",59996,"NAN","NAN","NAN","NAN","NAN","NAN","NAN","NAN",78.61,4.678,-13.69,61.02,978
"2015-02-25 06:00:00",59997,"NAN","NAN","NAN","NAN","NAN","NAN","NAN","NAN",80.1,4.42,-13.75,58.81,978
"2015-02-25 06:10:00",59998,"NAN","NAN","NAN","NAN","NAN","NAN","NAN","NAN",79.48,4.139,-13.69,59.08,978
"2015-02-25 06:20:00",59999,"NAN","NAN","NAN","NAN","NAN","NAN","NAN","NAN",73.52,4.479,-13.75,59.01,978
"2015-02-25 06:30:00",60000,"NAN","NAN","NAN","NAN","NAN","NAN","NAN","NAN",71,4.829,-13.75,59.45,978
"2015-02-25 06:40:00",60001,"NAN","NAN","NAN","NAN","NAN","NAN","NAN","NAN",80.2,4.185,-13.69,58.81,978
"2015-02-25 06:50:00",60002,"NAN","NAN","NAN","NAN","NAN","NAN","NAN","NAN",84.8,3.763,-13.75,57.92,978
"2015-02-25 07:00:00",60003,"NAN","NAN","NAN","NAN","NAN","NAN","NAN","NAN",79.48,3.782,-13.69,57.47,978
"2015-02-25 07:10:00",60004,"NAN","NAN","NAN","NAN","NAN","NAN","NAN","NAN",95.5,3.188,-13.79,60.1,978
"2015-02-25 07:20:00",60005,"NAN","NAN","NAN","NAN","NAN","NAN","NAN","NAN",99.4,2.838,-13.89,61.71,978
"2015-02-25 07:30:00",60006,"NAN","NAN","NAN","NAN","NAN","NAN","NAN","NAN",110.9,2.874,-13.99,64.47,978
"2015-02-25 07:40:00",60007,"NAN","NAN","NAN","NAN","NAN","NAN","NAN","NAN",96,3.455,-13.96,59.66,978
"2015-02-25 07:50:00",60008,"NAN","NAN","NAN","NAN","NAN","NAN","NAN","NAN",119.7,2.888,-14.06,62.73,978
"2015-02-25 08:00:00",60009,"NAN","NAN","NAN","NAN","NAN","NAN","NAN","NAN",120.8,2.618,-14.37,68.09,978
"2015-02-25 08:10:00",60010,"NAN","NAN","NAN","NAN","NAN","NAN","NAN","NAN",122.2,2.482,-14.47,70.85,978
"2015-02-25 08:20:00",60011,"NAN","NAN","NAN","NAN","NAN","NAN","NAN","NAN",109.4,2.813,-14.3,64.85,978
"2015-02-25 08:30:00",60012,"NAN","NAN","NAN","NAN","NAN","NAN","NAN","NAN",105.3,2.688,-14.23,64.64,978
"2015-02-25 08:40:00",60013,"NAN","NAN","NAN","NAN","NAN","NAN","NAN","NAN",93.8,2.408,-14.33,66.42,978
"2015-02-25 08:50:00",60014,"NAN","NAN","NAN","NAN","NAN","NAN","NAN","NAN",80.5,3.833,-13.99,62.61,978
"2015-02-25 09:00:00",60015,"NAN","NAN","NAN","NAN","NAN","NAN","NAN","NAN",80.8,3.239,-13.85,63.19,978
"2015-02-25 09:10:00",60016,"NAN","NAN","NAN","NAN","NAN","NAN","NAN","NAN",88.4,2.95,-13.85,64.75,978
"2015-02-25 09:20:00",60017,"NAN","NAN","NAN","NAN","NAN","NAN","NAN","NAN",91.8,2.524,-13.82,67.61,978
"2015-02-25 09:30:00",60018,"NAN","NAN","NAN","NAN","NAN","NAN","NAN","NAN",91,2.332,-13.92,68.67,979
"2015-02-25 09:40:00",60019,"NAN","NAN","NAN","NAN","NAN","NAN","NAN","NAN",88.2,1.969,-14.1,69.28,979
"2015-02-25 09:50:00",60020,"NAN","NAN","NAN","NAN","NAN","NAN","NAN","NAN",99.3,1.417,-14.1,69.76,979
"2015-02-25 10:00:00",60021,"NAN","NAN","NAN","NAN","NAN","NAN","NAN","NAN",114.5,1.041,-14.16,69.8,979
"2015-02-25 10:10:00",60022,"NAN","NAN","NAN","NAN","NAN","NAN","NAN","NAN",138.4,1.282,-14.27,71.88,979
"2015-02-25 10:20:00",60023,"NAN","NAN","NAN","NAN","NAN","NAN","NAN","NAN",166.4,1.964,-14.23,69.18,979
"2015-02-25 10:30:00",60024,"NAN","NAN","NAN","NAN","NAN","NAN","NAN","NAN",171.4,2.075,-14.54,72.08,979
"2015-02-25 10:40:00",60025,"NAN","NAN","NAN","NAN","NAN","NAN","NAN","NAN",177,2.234,-14.74,73.82,979
"2015-02-25 10:50:00",60026,"NAN","NAN","NAN","NAN","NAN","NAN","NAN","NAN",173.9,2.666,-15.05,71.67,979
"2015-02-25 11:00:00",60027,"NAN","NAN","NAN","NAN","NAN","NAN","NAN","NAN",156.1,2.293,-15.11,70.29,979
"2015-02-25 11:10:00",60028,"NAN","NAN","NAN","NAN","NAN","NAN","NAN","NAN",155,2.116,-15.35,70.81,979
"2015-02-25 11:20:00",60029,"NAN","NAN","NAN","NAN","NAN","NAN","NAN","NAN",153.2,1.878,-15.59,71.29,979
"2015-02-25 11:30:00",60030,"NAN","NAN","NAN","NAN","NAN","NAN","NAN","NAN",148.6,2.08,-16.03,70.33,979
"2015-02-25 11:40:00",60031,"NAN","NAN","NAN","NAN","NAN","NAN","NAN","NAN",144,2.021,-16.2,70.26,979
"2015-02-25 11:50:00",60032,"NAN","NAN","NAN","NAN","NAN","NAN","NAN","NAN",145.9,2.397,-16.51,70.24,979
"2015-02-25 12:00:00",60033,"NAN","NAN","NAN","NAN","NAN","NAN","NAN","NAN",144,2.434,-16.57,69.15,979
"2015-02-25 12:10:00",60034,"NAN","NAN","NAN","NAN","NAN","NAN","NAN","NAN",151.9,2.455,-16.71,69.26,979
"2015-02-25 12:20:00",60035,"NAN","NAN","NAN","NAN","NAN","NAN","NAN","NAN",149.6,2.431,-16.61,69.74,979
"2015-02-25 12:30:00",60036,"NAN","NAN","NAN","NAN","NAN","NAN","NAN","NAN",143.5,2.317,-17.19,69.81,979
"2015-02-25 12:40:00",60037,"NAN","NAN","NAN","NAN","NAN","NAN","NAN","NAN",161.2,1.826,-17.39,72.54,979
"2015-02-25 12:50:00",60038,"NAN","NAN","NAN","NAN","NAN","NAN","NAN","NAN",143.2,2.013,-17.25,71.52,979
"2015-02-25 13:00:00",60039,"NAN","NAN","NAN","NAN","NAN","NAN","NAN","NAN",187.4,1.175,-17.42,72.76,979
"2015-02-25 13:10:00",60040,"NAN","NAN","NAN","NAN","NAN","NAN","NAN","NAN",129.3,2.04,-17.22,70.44,979
"2015-02-25 13:20:00",60041,"NAN","NAN","NAN","NAN","NAN","NAN","NAN","NAN",154.9,2.239,-16.53,65.93,979
"2015-02-25 13:30:00",60042,"NAN","NAN","NAN","NAN","NAN","NAN","NAN","NAN",157.8,2.111,-16.46,65.29,980
"2015-02-25 13:40:00",60043,"NAN","NAN","NAN","NAN","NAN","NAN","NAN","NAN",168.2,1.94,-16.9,70.34,980
"2015-02-25 13:50:00",60044,"NAN","NAN","NAN","NAN","NAN","NAN","NAN","NAN",153.1,2.614,-17.31,68.06,980
"2015-02-25 14:00:00",60045,"NAN","NAN","NAN","NAN","NAN","NAN","NAN","NAN",172.2,1.468,-17.76,72.39,980
"2015-02-25 14:10:00",60046,"NAN","NAN","NAN","NAN","NAN","NAN","NAN","NAN",150.4,2.167,-18,74.03,980
"2015-02-25 14:20:00",60047,"NAN","NAN","NAN","NAN","NAN","NAN","NAN","NAN",158.5,1.698,-18.2,74.38,980
"2015-02-25 14:30:00",60048,"NAN","NAN","NAN","NAN","NAN","NAN","NAN","NAN",155.6,1.874,-18.24,74.14,980
"2015-02-25 14:40:00",60049,"NAN","NAN","NAN","NAN","NAN","NAN","NAN","NAN",170.2,2.296,-18.27,74.75,980
"2015-02-25 14:50:00",60050,"NAN","NAN","NAN","NAN","NAN","NAN","NAN","NAN",166.2,1.657,-17.76,73.39,980
"2015-02-25 15:00:00",60051,"NAN","NAN","NAN","NAN","NAN","NAN","NAN","NAN",140.8,1.844,-18.07,75.47,980
"2015-02-25 15:10:00",60052,"NAN","NAN","NAN","NAN","NAN","NAN","NAN","NAN",116.5,1.336,-18.92,73.93,980
"2015-02-25 15:20:00",60053,"NAN","NAN","NAN","NAN","NAN","NAN","NAN","NAN",177.3,0.982,-16.73,73.76,980
"2015-02-25 15:30:00",60054,"NAN","NAN","NAN","NAN","NAN","NAN","NAN","NAN",92.9,2.233,-19.57,69.22,980
"2015-02-25 15:40:00",60055,"NAN","NAN","NAN","NAN","NAN","NAN","NAN","NAN",90.4,2.987,-20.7,73.7,980
"2015-02-25 15:50:00",60056,"NAN","NAN","NAN","NAN","NAN","NAN","NAN","NAN",82.6,2.76,-20.32,73.05,980
"2015-02-25 16:00:00",60057,"NAN","NAN","NAN","NAN","NAN","NAN","NAN","NAN",69.05,3.217,-20.52,73.74,981
"2015-02-25 16:10:00",60058,"NAN","NAN","NAN","NAN","NAN","NAN","NAN","NAN",58.8,3.167,-20.14,74.67,981
"2015-02-25 16:20:00",60059,"NAN","NAN","NAN","NAN","NAN","NAN","NAN","NAN",57.54,2.819,-19.87,74.3,981
"2015-02-25 16:30:00",60060,"NAN","NAN","NAN","NAN","NAN","NAN","NAN","NAN",53.88,3.463,-18.61,71.7,981
"2015-02-25 16:40:00",60061,"NAN","NAN","NAN","NAN","NAN","NAN","NAN","NAN",67.39,2.43,-19.25,71.91,981
"2015-02-25 16:50:00",60062,"NAN","NAN","NAN","NAN","NAN","NAN","NAN","NAN",64.92,3.143,-20.21,74.26,981
"2015-02-25 17:00:00",60063,"NAN","NAN","NAN","NAN","NAN","NAN","NAN","NAN",49.06,2.648,-20.35,76.25,981
"2015-02-25 17:10:00",60064,"NAN","NAN","NAN","NAN","NAN","NAN","NAN","NAN",50.49,2.387,-20.08,75.56,981
"2015-02-25 17:20:00",60065,"NAN","NAN","NAN","NAN","NAN","NAN","NAN","NAN",51.4,2.414,-19.39,74.3,981
"2015-02-25 17:30:00",60066,"NAN","NAN","NAN","NAN","NAN","NAN","NAN","NAN",59.82,2.384,-19.12,75.67,981
"2015-02-25 17:40:00",60067,"NAN","NAN","NAN","NAN","NAN","NAN","NAN","NAN",57.51,2.672,-18.74,75.35,981
"2015-02-25 17:50:00",60068,"NAN","NAN","NAN","NAN","NAN","NAN","NAN","NAN",50.69,2.243,-18.51,74.97,981
"2015-02-25 18:00:00",60069,"NAN","NAN","NAN","NAN","NAN","NAN","NAN","NAN",63.95,2.59,-18.37,74.65,981
"2015-02-25 18:10:00",60070,"NAN","NAN","NAN","NAN","NAN","NAN","NAN","NAN",70.76,3.216,-18.2,74.75,981
"2015-02-25 18:20:00",60071,"NAN","NAN","NAN","NAN","NAN","NAN","NAN","NAN",66.06,2.853,-17.76,74.38,981
"2015-02-25 18:30:00",60072,"NAN","NAN","NAN","NAN","NAN","NAN","NAN","NAN",61.55,2.773,-17.45,74.2,981
"2015-02-25 18:40:00",60073,"NAN","NAN","NAN","NAN","NAN","NAN","NAN","NAN",64.75,2.874,-17.45,73.38,981
"2015-02-25 18:50:00",60074,"NAN","NAN","NAN","NAN","NAN","NAN","NAN","NAN",66.05,2.459,-17.18,72.48,981
"2015-02-25 19:00:00",60075,"NAN","NAN","NAN","NAN","NAN","NAN","NAN","NAN",73.79,2.258,-17.32,72.71,981
"2015-02-25 19:10:00",60076,"NAN","NAN","NAN","NAN","NAN","NAN","NAN","NAN",83.8,2.795,-17.29,73.46,981
"2015-02-25 19:20:00",60077,"NAN","NAN","NAN","NAN","NAN","NAN","NAN","NAN",84.8,2.916,-17.08,73.7,981
"2015-02-25 19:30:00",60078,"NAN","NAN","NAN","NAN","NAN","NAN","NAN","NAN",92.7,2.842,-16.57,70.97,982
"2015-02-25 19:40:00",60079,"NAN","NAN","NAN","NAN","NAN","NAN","NAN","NAN",85.1,1.868,-16.17,69.32,982
"2015-02-25 19:50:00",60080,"NAN","NAN","NAN","NAN","NAN","NAN","NAN","NAN",74.87,0.409,-15.66,66.85,982
"2015-02-25 20:00:00",60081,"NAN","NAN","NAN","NAN","NAN","NAN","NAN","NAN",86,1.062,-15.62,67.91,982
"2015-02-25 20:10:00",60082,"NAN","NAN","NAN","NAN","NAN","NAN","NAN","NAN",76.15,1.031,-15.08,64.32,982
"2015-02-25 20:20:00",60083,"NAN","NAN","NAN","NAN","NAN","NAN","NAN","NAN",133.2,0.8,-15.55,65.24,982
"2015-02-25 20:30:00",60084,"NAN","NAN","NAN","NAN","NAN","NAN","NAN","NAN",123.9,0.95,-15.62,66.51,982
"2015-02-25 20:40:00",60085,"NAN","NAN","NAN","NAN","NAN","NAN","NAN","NAN",96,0.69,-15.49,63.64,982
"2015-02-25 20:50:00",60086,"NAN","NAN","NAN","NAN","NAN","NAN","NAN","NAN",103.1,0.78,-15.01,63.15,982
"2015-02-25 21:00:00",60087,"NAN","NAN","NAN","NAN","NAN","NAN","NAN","NAN",182.7,1.094,-15.53,68.33,982
"2015-02-25 21:10:00",60088,"NAN","NAN","NAN","NAN","NAN","NAN","NAN","NAN",175,1.691,-16.65,70.99,982
"2015-02-25 21:20:00",60089,"NAN","NAN","NAN","NAN","NAN","NAN","NAN","NAN",187.4,1.548,-17.1,72.29,982
"2015-02-25 21:30:00",60090,"NAN","NAN","NAN","NAN","NAN","NAN","NAN","NAN",177.8,1.717,-17.13,72.59,982
"2015-02-25 21:40:00",60091,"NAN","NAN","NAN","NAN","NAN","NAN","NAN","NAN",179,1.407,-17.1,72.87,982
"2015-02-25 21:50:00",60092,"NAN","NAN","NAN","NAN","NAN","NAN","NAN","NAN",154.4,1.39,-17.17,73.96,982
"2015-02-25 22:00:00",60093,"NAN","NAN","NAN","NAN","NAN","NAN","NAN","NAN",153.8,0.541,-16.48,71.5,983
"2015-02-25 22:10:00",60094,"NAN","NAN","NAN","NAN","NAN","NAN","NAN","NAN",161.9,0.349,-15.7,68.29,983
"2015-02-25 22:20:00",60095,"NAN","NAN","NAN","NAN","NAN","NAN","NAN","NAN",166.5,1.555,-15.84,71.71,983
"2015-02-25 22:30:00",60096,"NAN","NAN","NAN","NAN","NAN","NAN","NAN","NAN",132.9,1.042,-15.63,67.61,983
"2015-02-25 22:40:00",60097,"NAN","NAN","NAN","NAN","NAN","NAN","NAN","NAN",133.6,0.613,-15.56,69.73,983
"2015-02-25 22:50:00",60098,"NAN","NAN","NAN","NAN","NAN","NAN","NAN","NAN",111.4,0.683,-14.71,65.9,983
"2015-02-25 23:00:00",60099,"NAN","NAN","NAN","NAN","NAN","NAN","NAN","NAN",160.9,0.443,-13.89,63.52,983
"2015-02-25 23:10:00",60100,"NAN","NAN","NAN","NAN","NAN","NAN","NAN","NAN",168.9,0.403,-13.89,64.19,983
"2015-02-25 23:20:00",60101,"NAN","NAN","NAN","NAN","NAN","NAN","NAN","NAN",147.3,0.505,-13.25,67.6,983
"2015-02-25 23:30:00",60102,"NAN","NAN","NAN","NAN","NAN","NAN","NAN","NAN",125.8,0.55,-13.66,66.5,983
"2015-02-25 23:40:00",60103,"NAN","NAN","NAN","NAN","NAN","NAN","NAN","NAN",125.4,1.289,-14.41,69.73,983
"2015-02-25 23:50:00",60104,"NAN","NAN","NAN","NAN","NAN","NAN","NAN","NAN",111,1.168,-14.31,70.03,983
"2015-02-26 00:00:00",60105,"NAN","NAN","NAN","NAN","NAN","NAN","NAN","NAN",84.4,2.112,-14.55,69.58,983
"2015-02-26 00:10:00",60106,"NAN","NAN","NAN","NAN","NAN","NAN","NAN","NAN",96.8,2.02,-14.79,70.71,983
"2015-02-26 00:20:00",60107,"NAN","NAN","NAN","NAN","NAN","NAN","NAN","NAN",105,1.512,-14.76,71.84,983
"2015-02-26 00:30:00",60108,"NAN","NAN","NAN","NAN","NAN","NAN","NAN","NAN",84.2,1.775,-14.83,71.36,983
"2015-02-26 00:40:00",60109,"NAN","NAN","NAN","NAN","NAN","NAN","NAN","NAN",73.85,0.919,-13.8,69.32,983
"2015-02-26 00:50:00",60110,"NAN","NAN","NAN","NAN","NAN","NAN","NAN","NAN",88.3,1.342,-13.9,71.02,983
"2015-02-26 01:00:00",60111,"NAN","NAN","NAN","NAN","NAN","NAN","NAN","NAN",90.7,0.953,-13.77,70.31,983
"2015-02-26 01:10:00",60112,"NAN","NAN","NAN","NAN","NAN","NAN","NAN","NAN",68.85,1.478,-14.01,70.31,983
"2015-02-26 01:20:00",60113,"NAN","NAN","NAN","NAN","NAN","NAN","NAN","NAN",66.73,1.286,-13.67,69.59,983
"2015-02-26 01:30:00",60114,"NAN","NAN","NAN","NAN","NAN","NAN","NAN","NAN",63.08,1.127,-13.36,70.27,984
"2015-02-26 01:40:00",60115,"NAN","NAN","NAN","NAN","NAN","NAN","NAN","NAN",81.9,0.994,-13.39,68.02,984
"2015-02-26 01:50:00",60116,"NAN","NAN","NAN","NAN","NAN","NAN","NAN","NAN",81.6,1.211,-13.56,69.93,984
"2015-02-26 02:00:00",60117,"NAN","NAN","NAN","NAN","NAN","NAN","NAN","NAN",78.73,1.214,-13.36,70.24,984
"2015-02-26 02:10:00",60118,"NAN","NAN","NAN","NAN","NAN","NAN","NAN","NAN",67.41,1.023,-12.98,68.16,984
"2015-02-26 02:20:00",60119,"NAN","NAN","NAN","NAN","NAN","NAN","NAN","NAN",49,1.322,-12.51,67.88,984
"2015-02-26 02:30:00",60120,"NAN","NAN","NAN","NAN","NAN","NAN","NAN","NAN",105.9,1.639,-12.74,65.43,984
"2015-02-26 02:40:00",60121,"NAN","NAN","NAN","NAN","NAN","NAN","NAN","NAN",97.8,1.191,-12.57,67.51,984
"2015-02-26 02:50:00",60122,"NAN","NAN","NAN","NAN","NAN","NAN","NAN","NAN",83.4,1.359,-13.05,69.11,984
"2015-02-26 03:00:00",60123,"NAN","NAN","NAN","NAN","NAN","NAN","NAN","NAN",89,1.649,-13.39,70.58,984
"2015-02-26 03:10:00",60124,"NAN","NAN","NAN","NAN","NAN","NAN","NAN","NAN",76.8,1.427,-12.88,69.39,984
"2015-02-26 03:20:00",60125,"NAN","NAN","NAN","NAN","NAN","NAN","NAN","NAN",72.08,1.296,-12.57,69.26,984
"2015-02-26 03:30:00",60126,"NAN","NAN","NAN","NAN","NAN","NAN","NAN","NAN",81.4,1.269,-12.47,64.93,984
"2015-02-26 03:40:00",60127,"NAN","NAN","NAN","NAN","NAN","NAN","NAN","NAN",93.8,1.834,-13.35,69.81,984
"2015-02-26 03:50:00",60128,"NAN","NAN","NAN","NAN","NAN","NAN","NAN","NAN",94.9,1.762,-13.7,71.75,984
"2015-02-26 04:00:00",60129,"NAN","NAN","NAN","NAN","NAN","NAN","NAN","NAN",97.4,1.178,-13.32,70.66,984
"2015-02-26 04:10:00",60130,"NAN","NAN","NAN","NAN","NAN","NAN","NAN","NAN",102.7,1.572,-13.93,71.72,984
"2015-02-26 04:20:00",60131,"NAN","NAN","NAN","NAN","NAN","NAN","NAN","NAN",104.3,1.932,-13.97,72.57,984
"2015-02-26 04:30:00",60132,"NAN","NAN","NAN","NAN","NAN","NAN","NAN","NAN",104.5,1.675,-14,74.14,984
"2015-02-26 04:40:00",60133,"NAN","NAN","NAN","NAN","NAN","NAN","NAN","NAN",81.7,1.801,-14.31,73.93,984
"2015-02-26 04:50:00",60134,"NAN","NAN","NAN","NAN","NAN","NAN","NAN","NAN",100.1,1.679,-13.97,72.81,984
"2015-02-26 05:00:00",60135,"NAN","NAN","NAN","NAN","NAN","NAN","NAN","NAN",110,1.813,-14.38,72.91,984
"2015-02-26 05:10:00",60136,"NAN","NAN","NAN","NAN","NAN","NAN","NAN","NAN",118.9,2.088,-14.86,72.53,984
"2015-02-26 05:20:00",60137,"NAN","NAN","NAN","NAN","NAN","NAN","NAN","NAN",123.6,1.995,-14.99,75.03,984
"2015-02-26 05:30:00",60138,"NAN","NAN","NAN","NAN","NAN","NAN","NAN","NAN",105.4,2.725,-15.64,75.57,984
"2015-02-26 05:40:00",60139,"NAN","NAN","NAN","NAN","NAN","NAN","NAN","NAN",105.9,2.295,-15.36,75,984
"2015-02-26 05:50:00",60140,"NAN","NAN","NAN","NAN","NAN","NAN","NAN","NAN",105.2,2.434,-15.12,73.33,984
"2015-02-26 06:00:00",60141,"NAN","NAN","NAN","NAN","NAN","NAN","NAN","NAN",101.1,2.032,-14.82,71.9,984
"2015-02-26 06:10:00",60142,"NAN","NAN","NAN","NAN","NAN","NAN","NAN","NAN",99.4,2.07,-15.19,70.64,984
"2015-02-26 06:20:00",60143,"NAN","NAN","NAN","NAN","NAN","NAN","NAN","NAN",95.3,2.327,-15.5,72.75,984
"2015-02-26 06:30:00",60144,"NAN","NAN","NAN","NAN","NAN","NAN","NAN","NAN",93.4,2.441,-15.16,71.42,984
"2015-02-26 06:40:00",60145,"NAN","NAN","NAN","NAN","NAN","NAN","NAN","NAN",90.6,2.519,-15.5,71.73,984
"2015-02-26 06:50:00",60146,"NAN","NAN","NAN","NAN","NAN","NAN","NAN","NAN",96.9,2.44,-15.67,71.83,984
"2015-02-26 07:00:00",60147,"NAN","NAN","NAN","NAN","NAN","NAN","NAN","NAN",89.7,2.53,-15.84,71.73,984
"2015-02-26 07:10:00",60148,"NAN","NAN","NAN","NAN","NAN","NAN","NAN","NAN",87.1,2.576,-15.6,71.63,984
"2015-02-26 07:20:00",60149,"NAN","NAN","NAN","NAN","NAN","NAN","NAN","NAN",87.9,2.634,-15.36,70.23,984
"2015-02-26 07:30:00",60150,"NAN","NAN","NAN","NAN","NAN","NAN","NAN","NAN",96.7,2.292,-15.7,70.3,984
"2015-02-26 07:40:00",60151,"NAN","NAN","NAN","NAN","NAN","NAN","NAN","NAN",101.3,2.038,-16.18,71.23,984
"2015-02-26 07:50:00",60152,"NAN","NAN","NAN","NAN","NAN","NAN","NAN","NAN",95.9,2.104,-16.18,71.3,984
"2015-02-26 08:00:00",60153,"NAN","NAN","NAN","NAN","NAN","NAN","NAN","NAN",106.4,2.283,-16.69,71.67,984
"2015-02-26 08:10:00",60154,"NAN","NAN","NAN","NAN","NAN","NAN","NAN","NAN",96.4,2.399,-17.24,72.35,984
"2015-02-26 08:20:00",60155,"NAN","NAN","NAN","NAN","NAN","NAN","NAN","NAN",86.9,2.974,-17.3,73.48,984
"2015-02-26 08:30:00",60156,"NAN","NAN","NAN","NAN","NAN","NAN","NAN","NAN",83.6,2.887,-17,73.55,984
"2015-02-26 08:40:00",60157,"NAN","NAN","NAN","NAN","NAN","NAN","NAN","NAN",80.5,2.675,-16.82,71.96,984
"2015-02-26 08:50:00",60158,"NAN","NAN","NAN","NAN","NAN","NAN","NAN","NAN",93.6,2.38,-17.33,72.72,984
"2015-02-26 09:00:00",60159,"NAN","NAN","NAN","NAN","NAN","NAN","NAN","NAN",96.2,2.094,-17.5,72.41,984
"2015-02-26 09:10:00",60160,"NAN","NAN","NAN","NAN","NAN","NAN","NAN","NAN",93.6,2.771,-16.99,73.2,984
"2015-02-26 09:20:00",60161,"NAN","NAN","NAN","NAN","NAN","NAN","NAN","NAN",117.1,3.087,-17.67,72.35,984
"2015-02-26 09:30:00",60162,"NAN","NAN","NAN","NAN","NAN","NAN","NAN","NAN",120.3,3.339,-18.87,74.7,984
"2015-02-26 09:40:00",60163,"NAN","NAN","NAN","NAN","NAN","NAN","NAN","NAN",122.2,1.913,-18.42,75.53,984
"2015-02-26 09:50:00",60164,"NAN","NAN","NAN","NAN","NAN","NAN","NAN","NAN",144,2.683,-18.55,74.76,984
"2015-02-26 10:00:00",60165,"NAN","NAN","NAN","NAN","NAN","NAN","NAN","NAN",106.9,3.982,-18.89,75.85,984
"2015-02-26 10:10:00",60166,"NAN","NAN","NAN","NAN","NAN","NAN","NAN","NAN",114.5,3.672,-18.52,77.87,984
"2015-02-26 10:20:00",60167,"NAN","NAN","NAN","NAN","NAN","NAN","NAN","NAN",111.1,3.969,-18,78.08,984
"2015-02-26 10:30:00",60168,"NAN","NAN","NAN","NAN","NAN","NAN","NAN","NAN",106.1,4.177,-17.83,77.16,985
"2015-02-26 10:40:00",60169,"NAN","NAN","NAN","NAN","NAN","NAN","NAN","NAN",100.6,4.032,-17.59,77.47,985
"2015-02-26 10:50:00",60170,"NAN","NAN","NAN","NAN","NAN","NAN","NAN","NAN",105,4.426,-17.32,76.52,985
"2015-02-26 11:00:00",60171,"NAN","NAN","NAN","NAN","NAN","NAN","NAN","NAN",111.3,4.27,-17.15,76.99,985
"2015-02-26 11:10:00",60172,"NAN","NAN","NAN","NAN","NAN","NAN","NAN","NAN",102.8,4.006,-16.47,76.31,985
"2015-02-26 11:20:00",60173,"NAN","NAN","NAN","NAN","NAN","NAN","NAN","NAN",97.1,3.775,-16.88,78.08,985
"2015-02-26 11:30:00",60174,"NAN","NAN","NAN","NAN","NAN","NAN","NAN","NAN",103,4.017,-16.98,78.07,985
"2015-02-26 11:40:00",60175,"NAN","NAN","NAN","NAN","NAN","NAN","NAN","NAN",91.9,4.202,-17.73,79.58,985
"2015-02-26 11:50:00",60176,"NAN","NAN","NAN","NAN","NAN","NAN","NAN","NAN",90.3,4.494,-17.97,79.2,985